Torna al catalogo

STARLINK-3550

AttivoComunicazioniVLEO
NORAD 52373·PAYLOAD·🇺🇸 United States

Lanciato Apr 29, 2022 da Cape Canaveral Space Force Station

Loading…

Prossimi Passaggi (prossime 24 ore)

TLE

AggiornatoSource: CelesTrak SupGP

Epoca: Sep 14, 2026, 20:52 UTC

1 52373C 22045AU  26257.86993056  .00050065  00000+0  14796-2 0  2572
2 52373  53.1602  43.9726 0001104  83.6464 218.6488 15.34357507    15

Traccia STARLINK-3550 in tempo reale con AllMySat

Download on the App Store